Location: Kumla
(59.1265°N, 15.1401°E)
Time: 15:42:17
(UTC+01:00)

A-11 Canister half - Pass Details

Date: 03 December 2023
Orbit: 1512 x 1687 km, 47.2° (Epoch: 25 February)

Event Time Altitude Azimuth Distance (km) Brightness Sun altitude
Exits shadow 07:50:49 - 280° (W) 4,900 11.1 -4.7°
Rises 07:50:50 0° 280° (W) 4,897 11.1 -4.7°
Reaches altitude 10° 07:55:43 10° 260° (W) 3,930 10.8 -4.2°
Maximum altitude 08:00:51 15° 229° (SW) 3,522 10.8 -3.7°
Drops below altitude 10° 08:06:01 10° 198° (SSW) 3,948 11.5 -3.2°
Sets 08:10:59 0° 178° (S) 4,931 12.4 -2.7°
